Location: Sobotiste
(48.7170°N, 17.4000°E)
Time: 22:03:43
(UTC+02:00)

SEEDS - Pass Details

Date: 15 March 2026
Orbit: 470 x 477 km, 97.8° (Epoch: 21 April)

Event Time Altitude Azimuth Distance (km) Brightness Sun altitude
Rises 05:14:11 0° 14° (NNE) 2,561 ? -9.1°
Reaches altitude 10° 05:16:16 10° 16° (NNE) 1,674 ? -8.7°
Maximum altitude 05:19:52 76° 102° (ESE) 502 ? -8.1°
Drops below altitude 10° 05:23:25 10° 190° (S) 1,652 ? -7.5°
Sets 05:25:28 0° 191° (SSW) 2,524 ? -7.2°
